Lexington Weather

Lexington, Massachusetts, USA

45°F
4/22/2024 9:23am 
  • Lexington Conditions: Clear
  • Temperature: 44.6°F / 7.0°CWarmer 2.7°F than last hour.
  • Dew Point: 25.7°FDecreased 2.2°Fsince last hour.
  • Relative Humidity: 47%Decreased 10.0% since last hour.
  • Wind: Calm, 10-min avg: Calm, gust: 6 mph
  • Barometer: 29.96 in Steady
  • Visibility: 10 miles
  • Rain Today: 0.00 in
  •   

Regional Weather Roundup
for Boston, MA

        
000
ASUS41 KBOX 191510
RWRBOX

REGIONAL WEATHER ROUNDUP
NATIONAL WEATHER SERVICE BOSTON/NORTON MA
1100 AM EDT FRI APR 19 2024

NOTE:  "FAIR" INDICATES FEW OR NO CLOUDS BELOW 12,000 FEET WITH NO 
SIGNIFICANT WEATHER AND/OR OBSTRUCTIONS TO VISIBILITY.

MAZALL-191600-
EASTERN MASSACHUSETTS
  
CITY           SKY/WX    TMP DP  RH WIND       PRES   REMARKS
BOSTON         MOSUNNY   50  41  71 VRB7      30.20S                  
BEVERLY        SUNNY     49  38  65 SE8       30.19S                  
LAWRENCE       SUNNY     53  35  50 S8        30.20S                  
BEDFORD        SUNNY     54  36  50 S12       30.17F                  
NORWOOD        SUNNY     56  34  43 SE9       30.18F                  
MARSHFIELD     PTSUNNY   50  37  62 E8        30.20S                  
PLYMOUTH       PTSUNNY   54  33  45 SE9       30.18F                  
TAUNTON        MOSUNNY   56  36  47 MISG      30.18F                  
NEW BEDFORD    CLOUDY    55  38  52 E10       30.18F                  
$$

MAZALL-191600-
CAPE COD AND THE ISLANDS
  
CITY           SKY/WX    TMP DP  RH WIND       PRES   REMARKS
FALMOUTH       PTSUNNY   54  37  54 E9G18     30.19F                  
HYANNIS        CLOUDY    51  36  56 SE10      30.18F                  
CHATHAM        CLOUDY    49  39  68 E9        30.21S                  
PROVINCETOWN   PTSUNNY   51  41  68 E9        30.21F                  
NANTUCKET      CLOUDY    52  37  56 E13G23    30.19F                  
MARTHAS VNYRD  CLOUDY    53  41  63 E10       30.19F                  
$$
 
MAZALL-191600-
CENTRAL AND WESTERN MASSACHUSETTS
  
CITY           SKY/WX    TMP DP  RH WIND       PRES   REMARKS
WORCESTER      MOSUNNY   51  32  48 SE10      30.15F                  
FITCHBURG      CLOUDY    54  31  41 SE10G17   30.18F                  
ORANGE         CLOUDY    52  34  50 S10G16    30.15F                  
SPRINGFIELD    PTSUNNY   56  31  39 S6        30.13F                  
WESTFIELD      PTSUNNY   54  34  46 VRB7      30.16S                  
NORTH ADAMS    CLOUDY    53  31  42 SE21G29   30.11F                  
PITTSFIELD     CLOUDY    48  31  51 SE15      30.10F                  
$$
 
RIZALL-191600-
RHODE ISLAND
  
CITY           SKY/WX    TMP DP  RH WIND       PRES   REMARKS
PROVIDENCE     PTSUNNY   53  39  59 SE12      30.18F                  
NEWPORT        PTSUNNY   52  37  56 E9        30.17F                  
BLOCK ISLAND   CLOUDY    47  42  83 E14       30.19S                  
SMITHFIELD     MOSUNNY   55  34  45 SE9       30.17F                  
WESTERLY       MOSUNNY   52  34  50 E14G23    30.18S                  
$$
 
CTZALL-191600-
CONNECTICUT
  
CITY           SKY/WX    TMP DP  RH WIND       PRES   REMARKS
BRADLEY INTL   PTSUNNY   56  36  47 S12G18    30.16S                  
HARTFORD       PTSUNNY   55  38  52 S5        30.16F                  
PLAINVILLE     FAIR      54  37  52 SE6       30.15F                  
BRIDGEPORT     MOSUNNY   50  42  74 E12       30.17S                  
DANBURY        CLOUDY    53  36  52 SE9G17    30.16S                  
GROTON         CLOUDY    53  37  54 E17G24    30.17F                  
NEW HAVEN      PTSUNNY   53  42  66 E16G23    30.17S                  
CHESTER        PTSUNNY   55  27  33 SE9G17    30.16S                  
MERIDEN        PTSUNNY   55  29  36 S9        30.16S                  
WILLIMANTIC    PTSUNNY   54  33  45 SE10      30.17F                  
OXFORD         CLOUDY    51  36  56 SE6       30.16S                  
$$

MEZ002-015-021-024-NHZ003-005-008-011-012-014-VTZ005-008-191600-
NORTHERN NEW ENGLAND
  
CITY           SKY/WX    TMP DP  RH WIND       PRES   REMARKS
PORTLAND ME    CLOUDY    50  34  54 S9        30.20F                  
BANGOR ME      MOSUNNY   55  33  43 S10       30.18F                  
CONCORD NH     PTSUNNY   53  37  54 SE9       30.17F                  
MANCHESTER NH  PTSUNNY   54  34  46 S12       30.16F                  
NASHUA NH      PTSUNNY   55  34  45 SE9       30.18F                  
PORTSMOUTH NH  PTSUNNY   51  37  58 E8        30.19S                  
JAFFREY NH     CLOUDY    52  34  50 S9G16     30.14F                  
KEENE NH       CLOUDY    52  31  44 SW13      30.14F                  
BURLINGTON VT  PTSUNNY   54  37  52 S21G33    30.04F                  
MT. WASHINGTON FOG       35  33  96 SW15G23     N/A  VSB 1/16WCI  25  
$$

NYZ052-076-191600-
EASTERN NEW YORK
  
CITY           SKY/WX    TMP DP  RH WIND       PRES   REMARKS
ALBANY         CLOUDY    53  35  50 S13G24    30.10F                  
NEW YORK CITY  PTSUNNY   52  38  58 NE8       30.15F                  
$$
 
ANZALL-191600-
MARINE OBSERVATIONS
  
STATION/POSITION TIME  TEMP    WIND        PRES    VSBY  WAVE
                       AIR SEA DIR/SP/G                  HT/PER
                 (UTC) (F)     (DEG/KT/KT) (MB)    (MI)  (FT/S)
BOSTON BUOY      1450   45     110/  8/ 10 1022.6R         2/11
BUZZARDS BAY     1400   45      70/ 11/ 12 1022.8F
NANTUCKET SOUND  1450   47 47   90/ 10/ 14 1022.2F         1/ 4
MASS BAY-STELLWA NOT AVBL
ISLE OF SHOALS   1400   45     110/  9/  9 1022.4F
S OF BLOCK IS    1456      44                N/A           6/ 8
$$

......................KEY.........................
  SKY/WX - SKY CONDITION/PRESENT WEATHER
  TMP    - TEMPERATURE IN FAHRENHEIT
  DWPT   - DEWPOINT IN FAHRENHEIT
  RH     - RELATIVE HUMIDITY IN PERCENT
  WIND   - DIRECTION AND SPEED IN MPH
  PRES   - MEAN SEA LEVEL PRESSURE IN INCHES OF HG
  WCI    - WIND CHILL INDEX
  VSB    - VISIBILITY IN MILES
  HX     - HEAT INDEX
  TC     - TEMPERATURE IN CELSIUS
  VRB    - VARIABLE WIND DIRECTION
  N/A    - NOT AVAILABLE
  
      

Other recent Regional Weather Roundups

Mon Apr 22, 9:10am EDT

Mon Apr 22, 8:10am EDT

Mon Apr 22, 7:10am EDT

Mon Apr 22, 6:10am EDT

Mon Apr 22, 5:10am EDT

Mon Apr 22, 4:10am EDT

Mon Apr 22, 3:10am EDT

Mon Apr 22, 2:10am EDT

Mon Apr 22, 1:10am EDT

Mon Apr 22, 12:10am EDT

Sun Apr 21, 11:10pm EDT

Sun Apr 21, 10:10pm EDT

Sun Apr 21, 9:10pm EDT

Sun Apr 21, 8:10pm EDT

Sun Apr 21, 7:10pm EDT

Sun Apr 21, 6:10pm EDT

Sun Apr 21, 5:10pm EDT

Sun Apr 21, 4:10pm EDT

Sun Apr 21, 3:10pm EDT

Sun Apr 21, 2:10pm EDT

Sun Apr 21, 1:10pm EDT

Sun Apr 21, 12:10pm EDT

Sun Apr 21, 11:10am EDT

Sun Apr 21, 10:10am EDT

Sun Apr 21, 9:10am EDT

Sun Apr 21, 8:10am EDT

Sun Apr 21, 7:10am EDT

Sun Apr 21, 6:10am EDT

Sun Apr 21, 5:10am EDT

Sun Apr 21, 4:10am EDT

Sun Apr 21, 3:10am EDT

Sun Apr 21, 2:10am EDT

Sun Apr 21, 1:10am EDT

Sun Apr 21, 12:10am EDT

Sat Apr 20, 11:10pm EDT

Sat Apr 20, 10:10pm EDT

Sat Apr 20, 9:10pm EDT

Sat Apr 20, 8:10pm EDT

Sat Apr 20, 7:10pm EDT

Sat Apr 20, 6:10pm EDT

Sat Apr 20, 5:10pm EDT

Sat Apr 20, 4:10pm EDT

Sat Apr 20, 3:10pm EDT

Sat Apr 20, 2:10pm EDT

Sat Apr 20, 1:10pm EDT

Sat Apr 20, 12:10pm EDT

Sat Apr 20, 11:10am EDT

Sat Apr 20, 10:10am EDT

Sat Apr 20, 9:10am EDT

Sat Apr 20, 8:10am EDT

Sat Apr 20, 7:10am EDT

Sat Apr 20, 6:10am EDT

Sat Apr 20, 5:10am EDT

Sat Apr 20, 4:10am EDT

Sat Apr 20, 3:10am EDT

Sat Apr 20, 2:10am EDT

Sat Apr 20, 1:10am EDT

Sat Apr 20, 12:10am EDT

Fri Apr 19, 11:10pm EDT

Fri Apr 19, 10:10pm EDT

Fri Apr 19, 9:10pm EDT

Fri Apr 19, 8:10pm EDT

Fri Apr 19, 7:10pm EDT

Fri Apr 19, 6:10pm EDT

Fri Apr 19, 5:10pm EDT

Fri Apr 19, 4:10pm EDT

Fri Apr 19, 3:10pm EDT

Fri Apr 19, 2:10pm EDT

Fri Apr 19, 1:10pm EDT

Fri Apr 19, 12:10pm EDT

Fri Apr 19, 10:10am EDT

Fri Apr 19, 9:10am EDT

Fri Apr 19, 8:10am EDT

Fri Apr 19, 7:10am EDT

Fri Apr 19, 6:10am EDT

Fri Apr 19, 5:10am EDT

Fri Apr 19, 4:10am EDT

Fri Apr 19, 3:10am EDT

Fri Apr 19, 2:10am EDT

Fri Apr 19, 1:10am EDT

Fri Apr 19, 12:10am EDT

Thu Apr 18, 11:10pm EDT

Thu Apr 18, 10:10pm EDT

Thu Apr 18, 9:10pm EDT

Thu Apr 18, 8:10pm EDT

Thu Apr 18, 7:10pm EDT

Thu Apr 18, 6:10pm EDT

Thu Apr 18, 5:10pm EDT

Thu Apr 18, 4:10pm EDT

Thu Apr 18, 3:10pm EDT

Thu Apr 18, 2:10pm EDT

Thu Apr 18, 1:10pm EDT

Thu Apr 18, 12:10pm EDT

Thu Apr 18, 11:10am EDT

Thu Apr 18, 10:10am EDT

Thu Apr 18, 9:10am EDT

Thu Apr 18, 8:10am EDT

Thu Apr 18, 7:10am EDT

Thu Apr 18, 6:10am EDT

Thu Apr 18, 5:10am EDT

Thu Apr 18, 4:10am EDT

Thu Apr 18, 3:10am EDT

Thu Apr 18, 2:10am EDT

Thu Apr 18, 1:10am EDT

Thu Apr 18, 12:10am EDT

Wed Apr 17, 11:10pm EDT

Wed Apr 17, 10:10pm EDT

Wed Apr 17, 9:10pm EDT

Wed Apr 17, 8:10pm EDT

Wed Apr 17, 7:10pm EDT

Wed Apr 17, 6:10pm EDT

Wed Apr 17, 5:10pm EDT

Wed Apr 17, 4:10pm EDT

Wed Apr 17, 3:10pm EDT

Wed Apr 17, 2:10pm EDT

Wed Apr 17, 1:10pm EDT

Wed Apr 17, 12:10pm EDT

Wed Apr 17, 11:10am EDT

Wed Apr 17, 10:10am EDT

Wed Apr 17, 9:10am EDT

Wed Apr 17, 8:10am EDT

Wed Apr 17, 7:10am EDT

Wed Apr 17, 6:10am EDT

Wed Apr 17, 5:10am EDT

Wed Apr 17, 4:10am EDT

Wed Apr 17, 3:10am EDT

Wed Apr 17, 2:10am EDT

Wed Apr 17, 1:10am EDT

Wed Apr 17, 12:10am EDT

Tue Apr 16, 11:10pm EDT

Tue Apr 16, 10:10pm EDT

Tue Apr 16, 9:10pm EDT

Tue Apr 16, 8:10pm EDT

Tue Apr 16, 7:10pm EDT

Tue Apr 16, 6:10pm EDT

Tue Apr 16, 5:10pm EDT

Tue Apr 16, 4:10pm EDT

Tue Apr 16, 3:10pm EDT

Tue Apr 16, 2:10pm EDT

Tue Apr 16, 1:10pm EDT

Tue Apr 16, 12:10pm EDT

Tue Apr 16, 11:10am EDT

Tue Apr 16, 10:10am EDT

Tue Apr 16, 9:10am EDT

Tue Apr 16, 8:10am EDT

Tue Apr 16, 7:10am EDT

Tue Apr 16, 6:10am EDT

Tue Apr 16, 5:10am EDT

Tue Apr 16, 4:10am EDT

Tue Apr 16, 3:10am EDT

Tue Apr 16, 2:10am EDT

Tue Apr 16, 1:10am EDT

Tue Apr 16, 12:10am EDT

Mon Apr 15, 11:10pm EDT

Mon Apr 15, 10:10pm EDT

Mon Apr 15, 9:10pm EDT

Mon Apr 15, 8:10pm EDT

Mon Apr 15, 7:10pm EDT

Mon Apr 15, 6:10pm EDT

Mon Apr 15, 5:10pm EDT

Mon Apr 15, 4:10pm EDT

Mon Apr 15, 3:10pm EDT

Mon Apr 15, 2:10pm EDT

Mon Apr 15, 1:10pm EDT

Mon Apr 15, 12:10pm EDT

Mon Apr 15, 11:10am EDT

Mon Apr 15, 10:10am EDT